Hourly Data Report for October 17, 2013

All times are specified in Local Standard Time (LST). Add 1 hour to adjust for Daylight Saving Time where and when it is observed.

PANGNIRTUNG
NUNAVUT

66°08'36.300" N
65°42'40.500" W
22.60 m
2403049
71826
WXP

Download Data

Hourly Data (October 2013)
Hourly Data Report for October 17, 2013
Temp Definition
°C
Dew Point Temp Definition
°C
Rel Hum Definition
%
Wind Dir Definition
10's deg

Wind Spd Definition
km/h
Visibility Definition
km
Stn Press Definition
kPa
Hmdx Definition


Wind Chill Definition


Weather Definition


TIME
00:00 0.5 -2.7 79 16 19   101.14     LegendNANA
01:00 0.6 -3.6 73 17 17   101.15     LegendNANA
02:00 0.8 -2.9 76 16 13   101.16     LegendNANA
03:00 0.4 -3.4 76 14 15   101.16     LegendNANA
04:00 0.3 -3.7 74 14 19   101.13     LegendNANA
05:00 0.1 -3.6 76 12 6   101.14     LegendNANA
06:00 0.6 -3.5 74 14 13   101.13     LegendNANA
07:00 0.6 -3.2 76 14 7   101.14     LegendNANA
08:00 1.2 -3.9 69 16 11   101.15     LegendNANA
09:00 1.2 -3.8 69 16 9   101.15     LegendNANA
10:00 1.4 -4.0 67 16 7   101.13     LegendNANA
11:00 1.4 -3.1 72 13 7   101.09     LegendNANA
12:00 1.0 -3.5 72 18 11   101.12     LegendNANA
13:00 0.6 -2.1 82 15 11   101.16     LegendNANA
14:00 0.5 -4.7 68 15 9   101.15     LegendNANA
15:00 0.6 -4.7 68 14 15   101.14     LegendNANA
16:00 0.5 -3.9 72 13 13   101.13     LegendNANA
17:00 0.8 -4.5 68 14 13   101.14     LegendNANA
18:00 0.1 -4.1 73 14 15   101.13     LegendNANA
19:00 0.0 -4.1 74 10 11   101.11   -4 LegendNANA
20:00 0.4 -4.1 72 12 13   101.11     LegendNANA
21:00 0.4 -4.0 72 10 20   101.09     LegendNANA
22:00 0.6 -3.9 72 6 9   101.06     LegendNANA
23:00 0.7 -4.2 70 12 17   101.02     LegendNANA

Notes on Data Quality.

Legend

  • E = Estimated
  • M = Missing
  • NA = Not Available
  • ‡ = Partner data that is not subject to review by the National Climate Archives
Date modified: